TAM3674 SBGL-SBSV

Flight info

Callsign TAM3674
Flight time 1h 40m
Altitude 37000
Route IMBAP UZ42 SIRAP DCT OSAGU DCT ZUMBA
Aircraft A320/M-SDE3FGHIRWY/LB1

Departure

Time 2026-04-30 18:51
Airport Rio Galeão – Tom Jobim International Airport (SBGL)

Arrival

Time 2026-04-30 20:32
Airport Deputado Luiz Eduardo Magalhães International Airport (SBSV)
Time Latitude Longitude Altitude Speed Heading
2026-04-30 18:20 -22.81042 -43.25309 18 ft 0 kts 93°
2026-04-30 18:42 -22.81041 -43.25324 23 ft 3 kts 91°
2026-04-30 18:45 -22.81061 -43.25386 25 ft 0 kts 360°
2026-04-30 18:47 -22.81060 -43.25386 25 ft 2 kts 360°
2026-04-30 18:47 -22.81009 -43.25382 22 ft 9 kts
2026-04-30 18:48 -22.80960 -43.25402 22 ft 10 kts 308°
2026-04-30 18:48 -22.80922 -43.25482 28 ft 9 kts 294°
2026-04-30 18:48 -22.80884 -43.25568 27 ft 18 kts 296°
2026-04-30 18:48 -22.80808 -43.25675 28 ft 16 kts 342°
2026-04-30 18:49 -22.80712 -43.25641 27 ft 17 kts 35°
2026-04-30 18:49 -22.80610 -43.25563 27 ft 17 kts 35°
2026-04-30 18:49 -22.80528 -43.25537 31 ft 9 kts 348°
2026-04-30 18:49 -22.80475 -43.25567 30 ft 8 kts 328°
2026-04-30 18:50 -22.80431 -43.25600 29 ft 8 kts 324°
2026-04-30 18:50 -22.80376 -43.25611 28 ft 11 kts 12°
2026-04-30 18:50 -22.80274 -43.25532 28 ft 24 kts 40°
2026-04-30 18:50 -22.80147 -43.25359 27 ft 39 kts 73°
2026-04-30 18:51 -22.80013 -43.24835 27 ft 103 kts 73°
2026-04-30 18:51 -22.79769 -43.23900 28 ft 153 kts 74°
2026-04-30 18:51 -22.79560 -43.23102 101 ft 173 kts 75°
2026-04-30 18:51 -22.79251 -43.21838 728 ft 174 kts 76°
2026-04-30 18:52 -22.78864 -43.20122 1596 ft 179 kts 81°
2026-04-30 18:52 -22.78590 -43.18732 1867 ft 200 kts 80°
2026-04-30 18:52 -22.78285 -43.17182 2127 ft 220 kts 78°
2026-04-30 18:52 -22.78054 -43.16040 2308 ft 237 kts 78°
2026-04-30 18:53 -22.77680 -43.14241 2711 ft 258 kts 77°
2026-04-30 18:53 -22.77128 -43.11655 3680 ft 267 kts 76°
2026-04-30 18:53 -22.76845 -43.10349 4206 ft 270 kts 76°
2026-04-30 18:53 -22.76409 -43.08355 5014 ft 274 kts 76°
2026-04-30 18:54 -22.75962 -43.06329 5772 ft 279 kts 76°
2026-04-30 18:54 -22.75506 -43.04263 6520 ft 284 kts 76°
2026-04-30 18:54 -22.75043 -43.02165 7241 ft 288 kts 77°
2026-04-30 18:54 -22.74586 -43.00041 7989 ft 292 kts 77°
2026-04-30 18:55 -22.74128 -42.97881 8747 ft 295 kts 77°
2026-04-30 18:55 -22.73193 -42.93490 10211 ft 303 kts 77°
2026-04-30 18:55 -22.72630 -42.91210 10458 ft 324 kts 67°
2026-04-30 18:56 -22.69524 -42.87496 11179 ft 347 kts 25°
2026-04-30 18:56 -22.67223 -42.86722 11781 ft 348 kts
2026-04-30 18:56 -22.64821 -42.86835 12396 ft 348 kts 349°
2026-04-30 18:57 -22.59990 -42.87653 13665 ft 354 kts 349°
2026-04-30 18:57 -22.57547 -42.88068 14219 ft 357 kts 349°
2026-04-30 18:57 -22.55095 -42.88479 14745 ft 359 kts 349°
2026-04-30 18:58 -22.50105 -42.89307 15782 ft 365 kts 348°
2026-04-30 18:58 -22.47611 -42.89720 16290 ft 367 kts 348°
2026-04-30 18:58 -22.45083 -42.90139 16813 ft 369 kts 348°
2026-04-30 18:59 -22.39964 -42.90988 17821 ft 375 kts 347°
2026-04-30 19:00 -22.32134 -42.92279 19179 ft 383 kts 347°
2026-04-30 19:00 -22.29490 -42.92715 19600 ft 386 kts 347°
2026-04-30 19:00 -22.24160 -42.93600 20417 ft 390 kts 347°
2026-04-30 19:01 -22.18725 -42.94341 21219 ft 399 kts 356°
2026-04-30 19:01 -22.15934 -42.94016 21612 ft 408 kts
2026-04-30 19:02 -22.10759 -42.91434 22399 ft 422 kts 30°
2026-04-30 19:02 -22.05774 -42.87962 23206 ft 426 kts 30°
2026-04-30 19:03 -22.00785 -42.84508 23919 ft 431 kts 30°
2026-04-30 19:03 -21.95714 -42.81008 24594 ft 435 kts 30°
2026-04-30 19:04 -21.90595 -42.77469 25247 ft 439 kts 30°
2026-04-30 19:04 -21.85431 -42.73902 25866 ft 443 kts 30°
2026-04-30 19:05 -21.80220 -42.70303 26491 ft 447 kts 30°
2026-04-30 19:05 -21.74960 -42.66680 27105 ft 451 kts 30°
2026-04-30 19:06 -21.69651 -42.63035 27706 ft 455 kts 30°
2026-04-30 19:06 -21.66983 -42.61201 28025 ft 456 kts 30°
2026-04-30 19:06 -21.61586 -42.57548 28596 ft 459 kts 27°
2026-04-30 19:07 -21.55967 -42.54237 29167 ft 462 kts 24°
2026-04-30 19:07 -21.53102 -42.52659 29457 ft 464 kts 24°
2026-04-30 19:08 -21.47346 -42.49477 29992 ft 468 kts 25°
2026-04-30 19:08 -21.41577 -42.46179 30434 ft 471 kts 26°
2026-04-30 19:08 -21.38725 -42.44524 30647 ft 473 kts 26°
2026-04-30 19:09 -21.32911 -42.41156 31091 ft 475 kts 26°
2026-04-30 19:09 -21.30015 -42.39485 31364 ft 474 kts 26°
2026-04-30 19:09 -21.27102 -42.37808 31662 ft 474 kts 26°
2026-04-30 19:10 -21.21287 -42.34467 32250 ft 473 kts 26°
2026-04-30 19:10 -21.15479 -42.31138 32846 ft 473 kts 26°
2026-04-30 19:11 -21.12582 -42.29480 33128 ft 473 kts 26°
2026-04-30 19:11 -21.06820 -42.26182 33713 ft 472 kts 26°
2026-04-30 19:11 -21.03887 -42.24506 34016 ft 472 kts 26°
2026-04-30 19:12 -21.00988 -42.22847 34282 ft 472 kts 26°
2026-04-30 19:12 -20.98130 -42.21213 34524 ft 472 kts 26°
2026-04-30 19:12 -20.95241 -42.19561 34793 ft 471 kts 26°
2026-04-30 19:13 -20.89469 -42.16265 35312 ft 469 kts 26°
2026-04-30 19:13 -20.83713 -42.12977 35765 ft 469 kts 26°
2026-04-30 19:13 -20.80835 -42.11336 35993 ft 468 kts 26°
2026-04-30 19:14 -20.77953 -42.09695 36188 ft 468 kts 26°
2026-04-30 19:14 -20.75078 -42.08060 36411 ft 468 kts 26°
2026-04-30 19:14 -20.72199 -42.06425 36643 ft 467 kts 26°
2026-04-30 19:14 -20.69324 -42.04791 36850 ft 466 kts 26°
2026-04-30 19:15 -20.66464 -42.03160 37027 ft 466 kts 26°
2026-04-30 19:15 -20.57624 -41.99022 37075 ft 461 kts 17°
2026-04-30 19:16 -20.51609 -41.96765 37075 ft 461 kts 17°
2026-04-30 19:17 -20.42530 -41.93342 37075 ft 461 kts 17°
2026-04-30 19:17 -20.33464 -41.89941 37073 ft 461 kts 17°
2026-04-30 19:18 -20.24373 -41.86538 37074 ft 461 kts 17°
2026-04-30 19:19 -20.18327 -41.84269 37069 ft 461 kts 17°
2026-04-30 19:19 -20.09276 -41.80885 37069 ft 461 kts 17°
2026-04-30 19:20 -20.03224 -41.78622 37059 ft 461 kts 17°
2026-04-30 19:21 -19.94141 -41.75230 37060 ft 461 kts 18°
2026-04-30 19:22 -19.82074 -41.70726 37049 ft 460 kts 17°
2026-04-30 19:23 -19.63940 -41.63975 37043 ft 460 kts 18°
2026-04-30 19:24 -19.54884 -41.60608 37040 ft 460 kts 18°
2026-04-30 19:25 -19.39807 -41.55006 37036 ft 459 kts 18°
2026-04-30 19:26 -19.27750 -41.50554 37033 ft 459 kts 18°
2026-04-30 19:27 -19.18711 -41.47210 37029 ft 458 kts 18°
2026-04-30 19:28 -19.09674 -41.43883 37027 ft 458 kts 18°
2026-04-30 19:29 -18.97690 -41.39453 37024 ft 457 kts 18°
2026-04-30 19:30 -18.85665 -41.35034 37027 ft 457 kts 18°
2026-04-30 19:31 -18.73661 -41.30622 37033 ft 457 kts 18°
2026-04-30 19:31 -18.64652 -41.27308 37032 ft 456 kts 18°
2026-04-30 19:32 -18.58649 -41.25106 37040 ft 456 kts 18°
2026-04-30 19:32 -18.52691 -41.22920 37039 ft 456 kts 18°
2026-04-30 19:33 -18.46695 -41.20716 37038 ft 456 kts 18°
2026-04-30 19:33 -18.40691 -41.18518 37036 ft 456 kts 18°
2026-04-30 19:34 -18.34681 -41.16328 37036 ft 456 kts 18°
2026-04-30 19:35 -18.25677 -41.13041 37037 ft 456 kts 18°
2026-04-30 19:35 -18.19724 -41.10862 37037 ft 456 kts 18°
2026-04-30 19:36 -18.13728 -41.08671 37038 ft 456 kts 18°
2026-04-30 19:36 -18.04734 -41.05388 37034 ft 456 kts 18°
2026-04-30 19:37 -17.98741 -41.03204 37034 ft 456 kts 18°
2026-04-30 19:37 -17.92748 -41.01022 37032 ft 456 kts 18°
2026-04-30 19:38 -17.86811 -40.98678 37032 ft 456 kts 22°
2026-04-30 19:38 -17.81000 -40.96003 37033 ft 456 kts 24°
2026-04-30 19:39 -17.75254 -40.93302 37031 ft 456 kts 24°
2026-04-30 19:39 -17.69425 -40.90659 37031 ft 456 kts 23°
2026-04-30 19:40 -17.63588 -40.88063 37033 ft 456 kts 23°
2026-04-30 19:40 -17.57759 -40.85467 37033 ft 456 kts 23°
2026-04-30 19:41 -17.51921 -40.82857 37036 ft 455 kts 23°
2026-04-30 19:41 -17.46093 -40.80241 37031 ft 455 kts 23°
2026-04-30 19:42 -17.41246 -40.78080 37032 ft 455 kts 23°
2026-04-30 19:42 -17.35408 -40.75479 37034 ft 456 kts 23°
2026-04-30 19:43 -17.29579 -40.72877 37033 ft 456 kts 23°
2026-04-30 19:44 -17.20834 -40.68970 37032 ft 456 kts 23°
2026-04-30 19:44 -17.15040 -40.66388 37036 ft 456 kts 23°
2026-04-30 19:45 -17.09196 -40.63790 37040 ft 456 kts 24°
2026-04-30 19:45 -17.03354 -40.61194 37043 ft 456 kts 24°
2026-04-30 19:46 -16.97523 -40.58599 37045 ft 456 kts 24°
2026-04-30 19:46 -16.91688 -40.56000 37048 ft 456 kts 24°
2026-04-30 19:47 -16.85844 -40.53406 37046 ft 456 kts 24°
2026-04-30 19:47 -16.80001 -40.50812 37051 ft 456 kts 24°
2026-04-30 19:48 -16.74158 -40.48221 37052 ft 456 kts 24°
2026-04-30 19:48 -16.68317 -40.45637 37049 ft 456 kts 24°
2026-04-30 19:49 -16.62513 -40.43065 37045 ft 456 kts 24°
2026-04-30 19:49 -16.53730 -40.39184 37046 ft 456 kts 24°
2026-04-30 19:50 -16.47890 -40.36595 37049 ft 456 kts 24°
2026-04-30 19:50 -16.42042 -40.34008 37047 ft 456 kts 24°
2026-04-30 19:51 -16.36188 -40.31430 37042 ft 456 kts 24°
2026-04-30 19:51 -16.30342 -40.28850 37038 ft 456 kts 24°
2026-04-30 19:52 -16.24497 -40.26278 37035 ft 456 kts 24°
2026-04-30 19:52 -16.18652 -40.23701 37037 ft 456 kts 24°
2026-04-30 19:53 -16.12856 -40.21133 37039 ft 456 kts 24°
2026-04-30 19:53 -16.06979 -40.18542 37033 ft 456 kts 24°
2026-04-30 19:54 -16.01173 -40.15991 37031 ft 456 kts 24°
2026-04-30 19:54 -15.95333 -40.13429 37031 ft 455 kts 24°
2026-04-30 19:55 -15.89499 -40.10871 37032 ft 455 kts 24°
2026-04-30 19:55 -15.83669 -40.08315 37032 ft 455 kts 24°
2026-04-30 19:56 -15.77839 -40.05757 37032 ft 455 kts 24°
2026-04-30 19:56 -15.72013 -40.03200 37031 ft 455 kts 24°
2026-04-30 19:57 -15.66184 -40.00643 37033 ft 454 kts 24°
2026-04-30 19:57 -15.60359 -39.98090 37033 ft 454 kts 24°
2026-04-30 19:58 -15.54583 -39.95556 37034 ft 454 kts 24°
2026-04-30 19:58 -15.48764 -39.93009 37031 ft 453 kts 24°
2026-04-30 19:59 -15.42951 -39.90470 37032 ft 453 kts 24°
2026-04-30 20:00 -15.34230 -39.86672 37030 ft 453 kts 24°
2026-04-30 20:00 -15.28421 -39.84148 37034 ft 453 kts 24°
2026-04-30 20:01 -15.19721 -39.80342 37036 ft 452 kts 24°
2026-04-30 20:01 -15.13963 -39.77824 37033 ft 452 kts 24°
2026-04-30 20:02 -15.05266 -39.74039 37039 ft 452 kts 24°
2026-04-30 20:03 -14.96592 -39.70217 37035 ft 451 kts 26°
2026-04-30 20:03 -14.90962 -39.67358 37028 ft 450 kts 29°
2026-04-30 20:04 -14.85391 -39.64390 37030 ft 450 kts 29°
2026-04-30 20:05 -14.76992 -39.60031 37039 ft 451 kts 28°
2026-04-30 20:05 -14.68596 -39.55765 37037 ft 450 kts 28°
2026-04-30 20:06 -14.65780 -39.54330 36713 ft 451 kts 28°
2026-04-30 20:06 -14.62970 -39.52897 36153 ft 450 kts 28°
2026-04-30 20:06 -14.60166 -39.51466 35622 ft 447 kts 28°
2026-04-30 20:06 -14.57379 -39.50046 35094 ft 445 kts 28°
2026-04-30 20:07 -14.54607 -39.48629 34566 ft 444 kts 28°
2026-04-30 20:07 -14.51844 -39.47216 34025 ft 443 kts 29°
2026-04-30 20:07 -14.46342 -39.44406 32926 ft 438 kts 28°
2026-04-30 20:08 -14.43623 -39.43020 32406 ft 435 kts 29°
2026-04-30 20:08 -14.40921 -39.41643 31891 ft 433 kts 28°
2026-04-30 20:08 -14.38225 -39.40268 31378 ft 431 kts 28°
2026-04-30 20:08 -14.35550 -39.38900 30867 ft 428 kts 28°
2026-04-30 20:09 -14.32885 -39.37539 30375 ft 426 kts 28°
2026-04-30 20:09 -14.30266 -39.36207 29857 ft 424 kts 28°
2026-04-30 20:09 -14.25035 -39.33547 28906 ft 415 kts 28°
2026-04-30 20:10 -14.19910 -39.30945 28009 ft 406 kts 28°
2026-04-30 20:10 -14.17394 -39.29667 27553 ft 401 kts 29°
2026-04-30 20:10 -14.14904 -39.28401 27103 ft 397 kts 29°
2026-04-30 20:11 -14.09987 -39.25900 26196 ft 391 kts 29°
2026-04-30 20:11 -14.07560 -39.24665 25752 ft 388 kts 29°
2026-04-30 20:11 -14.05145 -39.23439 25284 ft 385 kts 29°
2026-04-30 20:12 -14.00366 -39.21010 24338 ft 382 kts 29°
2026-04-30 20:12 -13.97988 -39.19797 23863 ft 381 kts 29°
2026-04-30 20:12 -13.95615 -39.18590 23340 ft 380 kts 29°
2026-04-30 20:13 -13.93247 -39.17389 22836 ft 377 kts 29°
2026-04-30 20:13 -13.90907 -39.16200 22372 ft 374 kts 29°
2026-04-30 20:13 -13.88579 -39.15017 21905 ft 372 kts 29°
2026-04-30 20:13 -13.86270 -39.13844 21448 ft 370 kts 29°
2026-04-30 20:14 -13.83973 -39.12677 20995 ft 368 kts 29°
2026-04-30 20:14 -13.81680 -39.11512 20536 ft 366 kts 29°
2026-04-30 20:14 -13.79430 -39.10372 20101 ft 365 kts 29°
2026-04-30 20:14 -13.77129 -39.09205 19649 ft 363 kts 29°
2026-04-30 20:15 -13.74897 -39.08074 19217 ft 362 kts 28°
2026-04-30 20:15 -13.72636 -39.06930 18792 ft 361 kts 28°
2026-04-30 20:15 -13.70380 -39.05748 18339 ft 359 kts 34°
2026-04-30 20:15 -13.68415 -39.04259 17936 ft 354 kts 41°
2026-04-30 20:16 -13.66500 -39.02680 17522 ft 351 kts 41°
2026-04-30 20:16 -13.64592 -39.01114 17063 ft 350 kts 40°
2026-04-30 20:16 -13.62697 -38.99563 16622 ft 348 kts 40°
2026-04-30 20:16 -13.60811 -38.98016 16241 ft 345 kts 40°
2026-04-30 20:17 -13.58936 -38.96477 15857 ft 343 kts 40°
2026-04-30 20:17 -13.57073 -38.94952 15437 ft 342 kts 40°
2026-04-30 20:17 -13.55215 -38.93431 15032 ft 341 kts 40°
2026-04-30 20:17 -13.53371 -38.91920 14643 ft 339 kts 40°
2026-04-30 20:18 -13.51539 -38.90415 14272 ft 337 kts 40°
2026-04-30 20:18 -13.49710 -38.88911 13969 ft 334 kts 40°
2026-04-30 20:18 -13.47903 -38.87426 13576 ft 332 kts 40°
2026-04-30 20:18 -13.46099 -38.85943 13163 ft 331 kts 40°
2026-04-30 20:19 -13.44309 -38.84476 12779 ft 328 kts 40°
2026-04-30 20:19 -13.43129 -38.83509 12525 ft 327 kts 40°
2026-04-30 20:19 -13.40760 -38.81569 12018 ft 324 kts 40°
2026-04-30 20:19 -13.39009 -38.80136 11636 ft 321 kts 40°
2026-04-30 20:20 -13.37263 -38.78706 11260 ft 319 kts 40°
2026-04-30 20:20 -13.35538 -38.77291 10860 ft 315 kts 40°
2026-04-30 20:20 -13.33860 -38.75917 10519 ft 301 kts 40°
2026-04-30 20:20 -13.32249 -38.74598 10035 ft 293 kts 40°
2026-04-30 20:21 -13.30666 -38.73301 9429 ft 289 kts 40°
2026-04-30 20:21 -13.29134 -38.72044 8948 ft 281 kts 41°
2026-04-30 20:21 -13.27619 -38.70798 8529 ft 279 kts 41°
2026-04-30 20:21 -13.26100 -38.69548 8151 ft 279 kts 41°
2026-04-30 20:22 -13.24586 -38.68300 7746 ft 279 kts 41°
2026-04-30 20:22 -13.23067 -38.67052 7333 ft 280 kts 41°
2026-04-30 20:22 -13.21545 -38.65803 6922 ft 280 kts 41°
2026-04-30 20:22 -13.20025 -38.64558 6518 ft 280 kts 41°
2026-04-30 20:23 -13.18502 -38.63310 6127 ft 279 kts 41°
2026-04-30 20:23 -13.16981 -38.62064 5744 ft 277 kts 41°
2026-04-30 20:23 -13.16457 -38.61634 5466 ft 281 kts 41°
2026-04-30 20:24 -13.14926 -38.60381 5089 ft 279 kts 41°
2026-04-30 20:24 -13.13430 -38.59161 4889 ft 272 kts 41°
2026-04-30 20:24 -13.11942 -38.57954 4749 ft 272 kts 40°
2026-04-30 20:24 -13.10460 -38.56754 4602 ft 271 kts 41°
2026-04-30 20:25 -13.07505 -38.54355 4316 ft 267 kts 41°
2026-04-30 20:25 -13.06080 -38.53198 4179 ft 255 kts 41°
2026-04-30 20:26 -13.03079 -38.51633 3868 ft 242 kts 12°
2026-04-30 20:26 -12.99775 -38.51141 3420 ft 235 kts 11°
2026-04-30 20:26 -12.98185 -38.50900 3213 ft 232 kts 11°
2026-04-30 20:27 -12.95176 -38.50086 2796 ft 217 kts 41°
2026-04-30 20:27 -12.93926 -38.47609 2550 ft 184 kts 81°
2026-04-30 20:28 -12.93446 -38.45198 2231 ft 160 kts 81°
2026-04-30 20:28 -12.93021 -38.43072 1859 ft 146 kts 83°
2026-04-30 20:29 -12.92625 -38.41086 1464 ft 141 kts 84°
2026-04-30 20:30 -12.92130 -38.38612 1007 ft 141 kts 84°
2026-04-30 20:30 -12.91544 -38.35687 510 ft 141 kts 83°
2026-04-30 20:31 -12.90974 -38.32839 57 ft 131 kts 81°
2026-04-30 20:32 -12.90845 -38.31714 50 ft 15 kts 168°
2026-04-30 20:32 -12.90929 -38.31837 51 ft 11 kts 259°
2026-04-30 20:33 -12.90944 -38.31910 51 ft 10 kts 257°
2026-04-30 20:33 -12.90983 -38.32088 53 ft 22 kts 259°
2026-04-30 20:33 -12.91002 -38.32191 49 ft 23 kts 258°
2026-04-30 20:34 -12.91084 -38.32595 52 ft 27 kts 258°
2026-04-30 20:34 -12.91150 -38.32928 47 ft 28 kts 258°
2026-04-30 20:35 -12.91180 -38.33070 44 ft 18 kts 258°
2026-04-30 20:35 -12.91210 -38.33175 42 ft 11 kts 218°
2026-04-30 20:35 -12.91280 -38.33264 44 ft 8 kts 259°
2026-04-30 20:36 -12.91291 -38.33314 44 ft 6 kts 244°
2026-04-30 20:36 -12.91323 -38.33321 44 ft 4 kts 169°
2026-04-30 20:36 -12.91347 -38.33316 40 ft 0 kts 168°